Home > Weather > Newmarket > Past weeks

Flag for Canada Weather for the Past 2 Weeks in Newmarket, Ontario, Canada

Now
-24 °F

Clear.


Feels Like: -24 °F
Forecast: -15 / 8 °F
Wind: No wind

Location: Borden

Current Time: Feb 14, 2016 at 1:46:48 AM

Latest Report: Feb 14, 2016 at 1:00 AM


Visibility: 9 mi

Pressure: 30.55 "Hg

Humidity: 61%

Dew point: -33 °F

Location of NewmarketLocation

Historic Weather in Newmarket — Graph

°F

Newmarket Temperature Yesterday

Maximum temperature yesterday: 0 °F (at 12:00 AM)
Minimum temperature yesterday: -18 °F (at 6:04 AM)
Average temperature yesterday: -11 °F

High & Low Weather Summary for the Past Weeks

 TemperatureHumidityPressure
High57 °F (Feb 3, 3:00 PM)100% (Jan 31, 6:00 PM)30.54 "Hg (Jan 31, 6:00 PM)
Low-22 °F (Feb 14, 12:00 AM)42% (Feb 13, 4:00 AM)29.40 "Hg (Jan 31, 9:57 PM)
Average26 °F79%29.91 "Hg
* Reported Midnight between Jan 29 and Jan 30 — Midnight between Feb 13 and Feb 14, Newmarket, Weather by CustomWeather, © 2016

Note: Actual official high and low records may vary slightly from our data, if they occured in-between our weather recording intervals... More about our weather records

Advertising

Newmarket Weather History for the Previous 24 Hours

 ConditionsComfort  
Time TempWeatherWind HumidityBarometerVisibility
12:00 AM
Sun, Feb 14
-22 °FPassing clouds.No wind68%30.54 "Hg9 mi
11:00 PM
Sat, Feb 13
-13 °FOvercast.3 mph63%30.53 "Hg9 mi
10:01 PM-11 °FOvercast.3 mph70%30.44 "Hg8 mi
9:00 PM-9 °FLight snow. Ice fog.3 mph70%30.52 "Hg1 mi
8:04 PM-9 °FLight snow. Ice fog.6 mph70%30.41 "Hg1 mi
7:52 PM-9 °FLight snow. Ice fog.5 mph77%30.41 "Hg1 mi
7:00 PM-8 °FLight snow. Ice fog.9 mph70%30.47 "Hg1 mi
6:00 PM-6 °FLight snow. Ice fog.6 mph70%30.44 "Hg1 mi
5:00 PM-6 °FLight snow. Ice fog.2 mph64%30.41 "Hg1 mi
4:00 PM-8 °FLight snow. Ice fog.2 mph70%30.40 "Hg1 mi
3:04 PM-8 °FLight snow. Ice fog.5 mph70%30.32 "Hg1 mi
3:01 PM-8 °FLight snow. Ice fog.3 mph70%30.31 "Hg1 mi
2:00 PM-9 °FLight snow. Ice fog.3 mph70%30.39 "Hg1 mi
1:02 PM-11 °FLight snow. Ice fog.2 mph70%30.32 "Hg1 mi
12:00 PM-11 °FLight snow. Ice fog.No wind70%30.40 "Hg1 mi
11:00 AM-15 °FIce fog.2 mph69%30.40 "Hg1 mi
10:45 AM-15 °FIce fog.2 mph69%30.33 "Hg1 mi
10:00 AM-17 °FIce fog.7 mph63%30.40 "Hg1 mi
9:00 AM-17 °FLight snow. Ice fog.3 mph63%30.38 "Hg1 mi
8:00 AM-18 °FLight snow. Ice fog.No wind62%30.36 "Hg1 mi
7:47 AM-18 °FLight snow. Ice fog.5 mph62%30.28 "Hg1 mi
7:00 AM-18 °FLight snow. Ice fog.5 mph62%30.33 "Hg1 mi
6:04 AM-18 °FIce fog.6 mph62%30.24 "Hg1 mi
5:01 AM-17 °FLight snow. Ice fog.9 mph57%30.22 "Hg1 mi
4:00 AM-15 °FIce fog.9 mph42%30.24 "Hg1 mi
3:03 AM-11 °FIce fog.14 mph91%30.15 "Hg1 mi
3:02 AM-11 °FLight snow. Ice fog.15 mph91%30.15 "Hg1 mi
2:00 AM-9 °FLight snow. Ice fog.15 mph92%30.16 "Hg1 mi
1:58 AM-9 °FLight snow. Ice fog.17 mph92%30.10 "Hg1 mi
1:00 AM-6 °FLight snow. Ice fog.13 mph92%30.12 "Hg1 mi
Weather by CustomWeather, © 2016

See weather overviewHow to use our weather pages